Regional Weather Roundup
Issued by NWS New Orleans/Baton Rouge, LA

Home | Current Version | Previous Version | Text Only | Print | Product List | Glossary On
Versions: 1 2 3 4 5 6 7 8 9 10 11 12 13 14 15 16 17 18 19 20 21 22 23 24 25 26 27 28 29 30 31 32 33 34 35 36 37 38 39 40 41 42 43 44 45 46 47 48 49 50
484
ASUS44 KLIX 270901
RWRLIX
NEW ORLEANS REGIONAL WEATHER ROUNDUP
NATIONAL WEATHER SERVICE NEW ORLEANS LA
300 AM CST THU NOV 27 2014

NOTE: "FAIR" INDICATES FEW OR NO CLOUDS BELOW 12,000 FEET WITH NO
      SIGNIFICANT WEATHER AND/OR OBSTRUCTIONS TO VISIBILITY.
      SKY/WX - SKY CONDITION AND SIGNIFICANT WEATHER.
      TMP - AIR TEMPERATURE.     DP    - DEWPOINT TEMPERATURE.
      RH  - RELATIVE HUMIDITY.   PRES  - PRESSURE.
      HI  - HEAT INDEX.          WCI   - WIND CHILL INDEX.

*  THESE STATIONS ARE NOT NWS OR FAA STATIONS AND ARE NOT UNDER
   NWS QUALITY CONTROL.

LAZ038-040-048-061>063-065>067-069-271000-
SOUTHEAST LOUISIANA

CITY           SKY/WX    TMP DP  RH WIND       PRES   REMARKS
N.O. AUDUBON     N/A     55  47  74 MISG        N/A
N.O. INTL ARPT CLEAR     51  45  79 NW7       30.32R
N.O. LAKEFRONT CLEAR     57  49  74 NW14      30.32R
N.O. DOWNTOWN*   N/A     55  45  67 NW6       30.32R
SLIDELL        CLEAR     49  44  83 CALM      30.31R
BATON ROUGE    CLEAR     43  40  89 W3        30.33R
BOOTHVILLE     CLEAR     57  50  77 W9        30.30R
BELLE CHASSE   CLEAR     55  46  71 NW5       30.31R
BOGALUSA*        N/A     47  40  76 N6        30.32R
NEW ROADS*     NOT AVBL
GONZALES*      NOT AVBL
HAMMOND*       NOT AVBL
HOUMA*         NOT AVBL
PORT FOURCHON* SUNNY     59  54  82 W12       30.34R

$$

MSZ070-080>082-271000-
SOUTHERN MISSISSIPPI

CITY           SKY/WX    TMP DP  RH WIND       PRES   REMARKS
MCCOMB         CLEAR     46  35  65 NW6       30.30R
GULFPORT       CLEAR     47  44  90 NW3       30.29R
BILOXI         CLEAR     51  45  81 VRB2      30.29R
PASCAGOULA     CLEAR     49  44  83 W6        30.29R

$$

COASTAL OBSERVATIONS
LAKE AND NEARSHORE STATIONS

STATION/POSITION TIME  TEMP    WIND        PRES    WAVE
                       AIR SEA DIR/SP/G            HT/PER
                 (UTC) (F)     (DEG/KT/KT) (MB)    (FT/S)
PASCAGOULA       0800   54     310/  7/  9 1024.7
WAVELAND YACHT   0800   53     290/  6/  8 1025.0
GRAND ISLE       0800   60 59  300/ 16/ 19 1026.0
SOUTHWEST PASS   0800   65                 1025.7
NEW CANAL        0800   57 54  300/  6/ 10 1026.7
SHELL BEACH      0800   56 52  290/ 10/ 11 1025.7

OFFSHORE STATIONS

STATION/POSITION TIME  TEMP    WIND        PRES    WAVE
                       AIR SEA DIR/SP/G            HT/PER
                 (UTC) (F)     (DEG/KT/KT) (MB)    (FT/S)
64 S DAUPHIN ISL 0807   66 70  290/ 27/ 31 1025.2    6/ 6

$$




USA.gov is the U.S. government's official web portal to all federal, state and local government web resources and services.